Fairbanks, AK

4:10 AM AKDT on September 21, 2017 (GMT -0800)
Fairbanks International

Weather History for PAFA - December, 2012

Change the Weather History Date:

Saturday, December 8, 2012

  Actual Average Record
Temperature  
Mean Temperature -15 °F -3 °F  
Max Temperature -2 °F 6 °F 55 °F (1934)
Min Temperature -28 °F -10 °F -53 °F (1935)
Degree Days  
Heating Degree Days 80 68  
Month to date heating degree days 737 541  
Since 1 July heating degree days 5226 4672  
Cooling Degree Days 0 0  
Month to date cooling degree days 0 0  
Year to date cooling degree days 34 61  
Moisture  
Dew Point -27 °F    
Average Humidity 71    
Maximum Humidity 78    
Minimum Humidity 53    
Precipitation  
Precipitation 0.00 in 0.02 in 0.30 in (1931)
Month to date precipitation T 0.15  
Year to date precipitation 9.43 10.32  
Snow  
Snow 0.00 in 0.40 in 8.00 in (2011)
Month to date snowfall 0.1 3.0  
Since 1 July snowfall 11.4 28.8  
Snow Depth 6.00 in    
Sea Level Pressure  
Sea Level Pressure 29.93 in    
Wind  
Wind Speed 3 mph (NNE)    
Max Wind Speed 6 mph    
Max Gust Speed -    
Visibility 9 miles    
Events      
T = Trace of Precipitation, MM = Missing Value Source: NWS Daily Summary

Daily Weather History Graph

Daily Weather History Graph

Search for Another Location

Airport or City:

Trip Planner

Search our weather history database for the weather conditions in past years. The results will help you decide how hot, cold, wet, or windy it might be!

Date:

Astronomy

Dec. 08, 2012 Rise Set
Actual Time 10:39 AM AKST 2:47 PM AKST
Civil Twilight 9:19 AM AKST 4:07 PM AKST
Nautical Twilight 8:09 AM AKST 5:18 PM AKST
Astronomical Twilight 7:07 AM AKST 6:19 PM AKST
Moon 3:18 AM AKST (12/8) 1:09 PM AKST (12/8)
Length of Visible Light 6h 48m
Length of Day
4h 07m
Waning Crescent, 27% of the Moon is Illuminated
Dec 8
Waning Crescent
Dec 12
New
Dec 19
First Quarter
Dec 28
Full
Jan 4
Last Quarter

Hourly Weather History & Observations

Time (AKST) Temp. Windchill Dew Point Humidity Pressure Visibility Wind Dir Wind Speed Gust Speed Precip Events Conditions
12:53 AM -27.0 °F -38.7 °F -33.0 °F 73% 30.16 in 7.0 mi NE 3.5 mph - N/A   Partly Cloudy
1:53 AM -27.0 °F -41.5 °F -32.1 °F 77% 30.16 in 7.0 mi NE 4.6 mph - N/A   Partly Cloudy
3:53 AM -26.0 °F - -33.0 °F 69% 30.15 in 7.0 mi Calm Calm - N/A   Partly Cloudy
4:53 AM -25.1 °F -36.5 °F -31.0 °F 74% 30.14 in 9.0 mi NNE 3.5 mph - N/A   Partly Cloudy
5:53 AM -26.0 °F -37.5 °F -33.0 °F 69% 30.13 in 10.0 mi NE 3.5 mph - N/A   Partly Cloudy
6:53 AM -26.0 °F -37.5 °F -32.1 °F 73% 30.11 in 10.0 mi NNE 3.5 mph - N/A   Partly Cloudy
7:53 AM -27.9 °F - -33.0 °F 77% 30.11 in 8.0 mi Calm Calm - N/A   Partly Cloudy
8:53 AM -25.1 °F -36.5 °F -32.1 °F 70% 30.09 in 10.0 mi NNE 3.5 mph - N/A   Clear
9:53 AM -26.0 °F -40.2 °F -32.1 °F 73% 30.07 in 10.0 mi NE 4.6 mph - N/A   Partly Cloudy
10:53 AM -23.1 °F - -29.9 °F 70% 30.06 in 10.0 mi Calm Calm - N/A   Partly Cloudy
11:53 AM -23.1 °F -34.2 °F -29.0 °F 74% 30.03 in 10.0 mi NNE 3.5 mph - N/A   Partly Cloudy
12:53 PM -25.1 °F -36.5 °F -29.9 °F 78% 30.00 in 10.0 mi NE 3.5 mph - N/A   Scattered Clouds
1:53 PM -25.1 °F - -31.0 °F 74% 29.96 in 10.0 mi Calm Calm - N/A   Scattered Clouds
2:53 PM -24.0 °F - -29.9 °F 74% 29.91 in 10.0 mi Calm Calm - N/A   Scattered Clouds
3:53 PM -24.0 °F - -31.0 °F 70% 29.85 in 10.0 mi Calm Calm - N/A   Scattered Clouds
4:53 PM -22.0 °F -33.0 °F -27.9 °F 74% 29.80 in 10.0 mi North 3.5 mph - N/A   Mostly Cloudy
5:53 PM -18.9 °F -29.5 °F -25.1 °F 74% 29.75 in 10.0 mi Variable 3.5 mph - N/A   Mostly Cloudy
6:53 PM -15.0 °F - -20.9 °F 75% 29.73 in 10.0 mi Calm Calm - N/A   Overcast
7:53 PM -11.9 °F - -18.0 °F 74% 29.69 in 10.0 mi Calm Calm - N/A   Overcast
8:53 PM -9.0 °F - -15.0 °F 75% 29.63 in 10.0 mi Calm Calm - N/A   Overcast
9:53 PM -6.0 °F - -11.9 °F 75% 29.60 in 10.0 mi Calm Calm - N/A   Overcast
10:53 PM -4.0 °F - -9.9 °F 76% 29.55 in 10.0 mi Calm Calm - N/A   Overcast
11:53 PM -2.0 °F -13.9 °F -8.0 °F 76% 29.53 in 10.0 mi NNE 5.8 mph - N/A   Overcast